SP6TSE-13 Weather Reports


time (UTC)temp
C
wind
direction
speed
KPH
gust
KPH
rain 1hr
cm
rain 24hr
cm
rain mn
cm
humidity
%
barometer
mb
20260502195255 17 25.7 51.5 0.00 0.00 0.00 37 994.4
20260502194303 17 25.7 51.5 0.00 0.00 0.00 37 994.4
20260502193255 17 25.7 51.5 0.00 0.00 0.00 37 994.4
20260502192256 17 25.7 51.5 0.00 0.00 0.00 37 994.4
20260502191255 17 25.7 51.5 0.00 0.00 0.00 37 994.4
20260502190254 17 25.7 51.5 0.00 0.00 0.00 37 994.4
20260502185254 18 25.7 51.5 0.00 0.00 0.00 35 994.4
20260502184255 18 25.7 51.5 0.00 0.00 0.00 35 994.4
20260502183255 18 25.7 51.5 0.00 0.00 0.00 35 994.4
20260502182255 18 25.7 51.5 0.00 0.00 0.00 35 994.4
20260502181255 20 25.7 51.5 0.00 0.00 0.00 36 994.2
20260502180255 20 25.7 51.5 0.00 0.00 0.00 36 994.2
20260502170254 22 38.6 64.4 0.00 0.00 0.00 31 994.7
20260502164255 24 38.6 77.2 0.00 0.00 0.00 29 995.1
20260502163254 24 38.6 90.1 0.00 0.00 0.00 29 995.1
20260502162255 24 38.6 90.1 0.00 0.00 0.00 29 995.1
20260502161254 24 51.5 90.1 0.00 0.00 0.00 29 995.1
20260502160254 25 51.5 90.1 0.00 0.00 0.00 28 995.8
20260502152255 25 51.5 77.2 0.00 0.00 0.00 27 996.2
20260502151255 25 51.5 77.2 0.00 0.00 0.00 27 996.2
20260502150255 25 51.5 77.2 0.00 0.00 0.00 27 996.2
20260502130255 23 38.6 77.2 0.00 0.00 0.00 27 997.7
20260502123254 -17 38.6 77.2 0.00 0.00 0.00
20260502122254 -17 38.6 77.2 0.00 0.00 0.00
20260502121254 23 51.5 77.2 0.00 0.00 0.00 26 998.3
20260502120255 23 51.5 77.2 0.00 0.00 0.00 26 998.3
20260502115255 23 38.6 77.2 0.00 0.00 0.00 27 998.8
20260502114255 23 38.6 77.2 0.00 0.00 0.00 27 998.8
20260502113255 23 38.6 77.2 0.00 0.00 0.00 27 998.8
20260502112254 23 38.6 77.2 0.00 0.00 0.00 27 998.8
20260502111255 22 38.6 77.2 0.00 0.00 0.00 27 999.2
20260502110254 22 38.6 77.2 0.00 0.00 0.00 27 999.2
20260502105254 22 38.6 77.2 0.00 0.00 0.00 27 999.2
20260502104254 22 38.6 77.2 0.00 0.00 0.00 27 999.2
20260502103254 22 38.6 64.4 0.00 0.00 0.00 29 1000.1
20260502102254 22 38.6 64.4 0.00 0.00 0.00 29 1000.1
20260502101254 22 38.6 64.4 0.00 0.00 0.00 29 1000.1
20260502100255 22 38.6 64.4 0.00 0.00 0.00 29 1000.1
20260502091254 23 25.7 51.5 0.00 0.00 0.00 30 1000.4
20260502090255 23 25.7 51.5 0.00 0.00 0.00 30 1000.4
20260502071254 13 12.9 38.6 0.00 0.00 0.00 65 1000.7
20260502070255 13 12.9 38.6 0.00 0.00 0.00 65 1000.7
20260502065254 13 12.9 38.6 0.00 0.00 0.00 65 1000.7
20260502064254 13 12.9 38.6 0.00 0.00 0.00 65 1000.7
20260502063254 13 12.9 38.6 0.00 0.00 0.00 65 1000.7
20260502062254 13 12.9 38.6 0.00 0.00 0.00 65 1000.7
20260502061254 13 12.9 38.6 0.00 0.00 0.00 65 1000.7
20260502060254 13 12.9 38.6 0.00 0.00 0.00 65 1000.7
20260502055255 13 12.9 38.6 0.00 0.00 0.00 65 1000.7
20260502054254 6 12.9 38.6 0.00 0.00 0.00 86 1001.0
20260502053255 6 12.9 38.6 0.00 0.00 0.00 86 1001.0
20260502052254 6 12.9 38.6 0.00 0.00 0.00 86 1001.0
20260502051255 6 12.9 38.6 0.00 0.00 0.00 86 1001.0
20260502050254 6 12.9 38.6 0.00 0.00 0.00 86 1001.0
20260502045255 6 12.9 38.6 0.00 0.00 0.00 86 1001.0
20260502044254 6 12.9 38.6 0.00 0.00 0.00 86 1001.0
20260502043255 6 12.9 38.6 0.00 0.00 0.00 86 1001.0
20260502042255 7 12.9 38.6 0.00 0.00 0.00 76 1000.9
20260502041255 7 12.9 38.6 0.00 0.00 0.00 76 1000.9
20260502040255 7 12.9 38.6 0.00 0.00 0.00 76 1000.9
20260502035254 7 12.9 38.6 0.00 0.00 0.00 76 1000.9
20260502034254 7 12.9 38.6 0.00 0.00 0.00 81 1001.0
20260502033255 7 12.9 38.6 0.00 0.00 0.00 81 1001.0
20260502032255 7 12.9 38.6 0.00 0.00 0.00 81 1001.0
20260502031255 7 12.9 38.6 0.00 0.00 0.00 81 1001.0
20260502030255 7 12.9 38.6 0.00 0.00 0.00 81 1001.0
20260502025255 7 12.9 38.6 0.00 0.00 0.00 85 1000.9
20260502024255 7 12.9 38.6 0.00 0.00 0.00 85 1000.9
20260502023255 7 12.9 38.6 0.00 0.00 0.00 85 1000.9
20260502022255 7 12.9 38.6 0.00 0.00 0.00 85 1000.9
20260502021255 7 12.9 38.6 0.00 0.00 0.00 85 1000.9
20260502020255 7 12.9 38.6 0.00 0.00 0.00 85 1000.9
20260502015254 7 12.9 38.6 0.00 0.00 0.00 85 1000.9
20260502014254 7 12.9 38.6 0.00 0.00 0.00 85 1000.9
20260502013254 7 12.9 38.6 0.00 0.00 0.00 83 1001.1
20260502012255 7 12.9 38.6 0.00 0.00 0.00 83 1001.1
20260502011254 7 12.9 38.6 0.00 0.00 0.00 83 1001.1
20260502010254 7 12.9 38.6 0.00 0.00 0.00 83 1001.1
20260502005255 7 12.9 38.6 0.00 0.00 0.00 84 1001.4
20260502004255 7 12.9 38.6 0.00 0.00 0.00 84 1001.4
20260502003254 7 12.9 38.6 0.00 0.00 0.00 84 1001.4
20260502002255 7 12.9 38.6 0.00 0.00 0.00 84 1001.4
20260502001254 7 12.9 38.6 0.00 0.00 0.00 84 1001.4
20260502000255 7 12.9 38.6 0.00 0.00 0.00 78 1001.3
20260501235255 7 12.9 38.6 0.00 0.00 0.00 78 1001.3
20260501234255 7 12.9 38.6 0.00 0.00 0.00 78 1001.3
20260501233254 7 12.9 38.6 0.00 0.00 0.00 78 1001.3
20260501232254 8 12.9 38.6 0.00 0.00 0.00 76 1001.5
20260501231254 8 12.9 38.6 0.00 0.00 0.00 76 1001.5
20260501230255 8 12.9 38.6 0.00 0.00 0.00 76 1001.5
20260501225254 8 12.9 38.6 0.00 0.00 0.00 76 1001.5
20260501224255 8 12.9 38.6 0.00 0.00 0.00 74 1001.5
20260501223254 8 12.9 38.6 0.00 0.00 0.00 74 1001.5
20260501222255 8 12.9 38.6 0.00 0.00 0.00 74 1001.5
20260501221255 8 12.9 38.6 0.00 0.00 0.00 74 1001.5
20260501220255 8 12.9 38.6 0.00 0.00 0.00 73 1001.6
20260501215255 8 12.9 38.6 0.00 0.00 0.00 73 1001.6
20260501214255 8 12.9 38.6 0.00 0.00 0.00 73 1001.6
20260501213255 8 12.9 38.6 0.00 0.00 0.00 73 1001.6
20260501212254 16 12.9 38.6 0.00 0.00 0.00 42 1001.4
20260501211254 16 12.9 38.6 0.00 0.00 0.00 42 1001.4
20260501210255 16 12.9 38.6 0.00 0.00 0.00 42 1001.4
20260501205255 16 12.9 25.7 0.00 0.00 0.00 42 1001.4
20260501204255 16 12.9 25.7 0.00 0.00 0.00 42 1001.4
20260501203254 16 12.9 25.7 0.00 0.00 0.00 42 1001.4
20260501202254 16 12.9 25.7 0.00 0.00 0.00 42 1001.4
20260501201255 16 12.9 38.6 0.00 0.00 0.00 42 1001.4
20260501200255 16 12.9 38.6 0.00 0.00 0.00 42 1001.4